Location: Althorst
(53.6379°N, 10.7715°E)
Time: 04:33:18
(UTC+00:00)

Cosmos 1703 Rocket - Pass Details

Date: 10 December 2019
Orbit: 604 x 635 km, 82.5° (Epoch: 28 January)

Event Time Altitude Azimuth Distance (km) Brightness Sun altitude
Rises 16:51:49 0° 169° (S) 2,916 7.1 -15.7°
Reaches altitude 10° 16:54:08 10° 162° (SSE) 2,016 6.2 -16.1°
Maximum altitude 16:58:20 42° 92° (E) 919 4.0 -16.7°
Enters shadow 17:00:17 27° 41° (NE) 1,245 4.6 -16.9°
